Weather History for Resolute, NU

Change the Weather History Date:

Thursday, February 21, 2013

  Actual Average Record
Temperature  
Mean Temperature -32 °F -  
Max Temperature -16 °F -20 °F -5 °F (1999)
Min Temperature -45 °F -30 °F -45 °F (2013)
Degree Days  
Heating Degree Days 96    
Moisture  
Dew Point -38 °F    
Average Humidity 61    
Maximum Humidity 74    
Minimum Humidity 30    
Precipitation  
Precipitation 0.00 in - - ()
Sea Level Pressure  
Sea Level Pressure 30.44 in    
Wind  
Wind Speed 8 mph ()    
Max Wind Speed 29 mph    
Max Gust Speed 34 mph    
Visibility 8.1 miles    
Events Snow    
Averages and records for this station are not official NWS values.
T = Trace of Precipitation, MM = Missing Value Source: Averaged Metar Reports

Daily Weather History Graph

Daily Weather History Graph

Search for Another Location

Airport:

Trip Planner

Search our weather history database for the weather conditions in past years. The results will help you decide how hot, cold, wet, or windy it might be!

Date:

Astronomy

Feb. 21, 2013 Rise Set
Actual Time 9:04 AM CST 4:04 PM CST
Civil Twilight 7:35 AM CST 5:33 PM CST
Nautical Twilight 6:03 AM CST 7:06 PM CST
Astronomical Twilight 4:28 AM CST 8:42 PM CST
Moon No Moon Rise No Moon Set
Length of Visible Light 9h 58m
Length of Day
7h 00m
Waxing Gibbous, 84% of the Moon is Illuminated
Feb 21
Waxing Gibbous
Feb 25
Full
Mar 4
Last Quarter
Mar 11
New
Mar 19
First Quarter

Hourly Weather History & Observations

Time (CST) Temp. Windchill Dew Point Humidity Pressure Visibility Wind Dir Wind Speed Gust Speed Precip Events Conditions
12:00 AM -41 °F - -48 °F 49% 30.49 in 15 mi Calm Calm - - Snow Snow
12:00 AM -41.8 °F - -47.2 °F 74% 30.49 in 15.0 mi Calm Calm - N/A   Clear
1:00 AM -45.4 °F - - N/A% 30.50 in 15.0 mi Calm Calm - N/A   Clear
2:00 AM -43.6 °F - - N/A% 30.51 in 15.0 mi Calm Calm - N/A   Clear
3:00 AM -40.0 °F - -47.2 °F 67% 30.50 in 15.0 mi SSW 2.3 mph - N/A   Clear
4:00 AM -41.8 °F -58.7 °F - N/A% 30.51 in 10.0 mi SE 4.6 mph - N/A   Clear
5:00 AM -40.0 °F - -47.2 °F 67% 30.50 in 15.0 mi SE 2.3 mph - N/A   Clear
6:00 AM -41 °F - -49 °F 45% 30.50 in 15 mi Calm Calm - - Snow Snow
6:00 AM -40.0 °F - -49.0 °F 60% 30.50 in 15.0 mi Calm Calm - N/A   Clear
7:00 AM -40.0 °F - -47.2 °F 67% 30.50 in 15.0 mi Calm Calm - N/A   Partly Cloudy
8:00 AM -38.2 °F - -47.2 °F 61% 30.49 in 9.0 mi Calm Calm - N/A   Partly Cloudy
9:00 AM -38.2 °F - -45.4 °F 67% 30.48 in 8.0 mi WNW 2.3 mph - N/A   Partly Cloudy
10:00 AM -36.4 °F - -47.2 °F 55% 30.48 in 6.0 mi Calm Calm - N/A   Ice Crystals
11:00 AM -36.4 °F - -47.2 °F 55% 30.47 in 10.0 mi South 2.3 mph - N/A   Partly Cloudy
12:00 PM -29 °F - -42 °F 30% 30.45 in 15 mi SE 10.4 mph - - Snow Snow
12:00 PM -29.2 °F -52.5 °F -41.8 °F 51% 30.45 in 15.0 mi SE 10.4 mph - N/A   Partly Cloudy
1:00 PM -23.8 °F -52.2 °F -32.8 °F 63% 30.43 in 15.0 mi SE 18.4 mph - N/A   Mostly Cloudy
2:00 PM -23.8 °F -52.9 °F -31.0 °F 69% 30.42 in 8.0 mi SE 19.6 mph - N/A Snow Low Drifting Snow
3:00 PM -22.0 °F -50.6 °F -31.0 °F 63% 30.40 in 3.0 mi East 19.6 mph - N/A Snow Ice Crystals
3:38 PM - - - N/A% - 0.5 mi East 20.7 mph - N/A   Ice Crystals
4:00 PM -23.8 °F -56.6 °F -31.0 °F 69% 30.40 in 0.5 mi East 26.5 mph 34.5 mph N/A Snow Ice Crystals
5:00 PM -22.0 °F -54.7 °F -29.2 °F 69% 30.39 in 0.5 mi ESE 27.6 mph 33.4 mph N/A Snow Ice Crystals
5:20 PM - - - N/A% - 1.5 mi ESE 23.0 mph - N/A   Unknown
5:55 PM - - - N/A% - 4.0 mi ESE 23.0 mph - N/A   Unknown
6:00 PM -21 °F - -28 °F 52% 30.38 in 4 mi ESE 20.7 mph - - Snow Light Snow
6:00 PM -20.2 °F -48.2 °F -29.2 °F 63% 30.38 in 4.0 mi ESE 19.6 mph 28.8 mph N/A Snow Light Snow
6:30 PM - - - N/A% - 2.5 mi ESE 28.8 mph - N/A   Unknown
7:00 PM -20.2 °F -48.9 °F -27.4 °F 69% 30.37 in 2.5 mi ESE 20.7 mph 28.8 mph N/A Snow Light Snow
7:11 PM - - - N/A% - 4.0 mi ESE 18.4 mph - N/A   Unknown
8:00 PM -20.2 °F -48.2 °F -29.2 °F 63% 30.35 in 4.0 mi ESE 19.6 mph 27.6 mph N/A Snow Light Snow
9:00 PM -20.2 °F -50.7 °F -29.2 °F 63% 30.34 in 6.0 mi East 24.2 mph - N/A Snow Light Snow
9:46 PM - - - N/A% - 3.0 mi ESE 23.0 mph - N/A   Unknown
10:00 PM -18.4 °F -45.9 °F -25.6 °F 70% 30.32 in 3.0 mi East 19.6 mph 26.5 mph N/A Snow Light Snow
10:20 PM - - - N/A% - 6.0 mi East 17.3 mph - N/A   Unknown
11:00 PM -16.6 °F -45.3 °F -25.6 °F 64% 30.31 in 2.0 mi ESE 23.0 mph 28.8 mph N/A Snow Light Snow